Friday Harbor, WA

10:22 AM PST on February 12, 2016 (GMT -0800)
Friday Harbor

Weather History for KFHR - April, 2013

Change the Weather History Date:

Sunday, April 28, 2013

  Actual Average Record
Temperature  
Mean Temperature 47 °F -  
Max Temperature 55 °F 57 °F 66 °F (1998)
Min Temperature 39 °F 39 °F 35 °F (1999)
Degree Days  
Heating Degree Days 18    
Moisture  
Dew Point 40 °F    
Average Humidity 75    
Maximum Humidity 93    
Minimum Humidity 53    
Precipitation  
Precipitation 0.00 in - - ()
Sea Level Pressure  
Sea Level Pressure 30.11 in    
Wind  
Wind Speed 5 mph (SSW)    
Max Wind Speed 15 mph    
Max Gust Speed 22 mph    
Visibility 10 miles    
Events Rain    
Averages and records for this station are not official NWS values.
T = Trace of Precipitation, MM = Missing Value Source: NWS Daily Summary

Daily Weather History Graph

Daily Weather History Graph

Search for Another Location

Airport or City:

Trip Planner

Search our weather history database for the weather conditions in past years. The results will help you decide how hot, cold, wet, or windy it might be!

Date:

Astronomy

Apr. 28, 2013 Rise Set
Actual Time 5:57 AM PDT 8:22 PM PDT
Civil Twilight 5:22 AM PDT 8:57 PM PDT
Nautical Twilight 4:38 AM PDT 9:41 PM PDT
Astronomical Twilight 3:48 AM PDT 10:32 PM PDT
Moon No Moon Rise 8:10 AM PDT (4/28)
Length of Visible Light 15h 35m
Length of Day
14h 25m
Waning Gibbous, 88% of the Moon is Illuminated
Apr 28
Waning Gibbous
May 2
Last Quarter
May 9
New
May 17
First Quarter
May 24
Full

Hourly Weather History & Observations

Time (PDT) Temp. Windchill Dew Point Humidity Pressure Visibility Wind Dir Wind Speed Gust Speed Precip Events Conditions
12:53 AM 46.0 °F 43.1 °F 41.0 °F 83% 30.19 in 10.0 mi Variable 5.8 mph - N/A   Clear
1:53 AM 46.9 °F - 37.9 °F 71% 30.19 in 10.0 mi Calm Calm - N/A   Clear
2:53 AM 44.1 °F - 37.0 °F 76% 30.19 in 10.0 mi Calm Calm - N/A   Clear
3:53 AM 43.0 °F - 37.9 °F 82% 30.19 in 10.0 mi Calm Calm - N/A   Clear
4:53 AM 39.0 °F - 36.0 °F 89% 30.20 in 10.0 mi Calm Calm - N/A   Clear
6:53 AM 44.1 °F 42.5 °F 39.9 °F 85% 30.20 in 10.0 mi West 3.5 mph - N/A   Scattered Clouds
7:53 AM 46.0 °F - 41.0 °F 83% 30.20 in 10.0 mi Calm Calm - N/A   Scattered Clouds
8:53 AM 48.9 °F - 37.9 °F 66% 30.20 in 10.0 mi Calm Calm - N/A   Mostly Cloudy
9:53 AM 53.1 °F - 39.9 °F 61% 30.20 in 10.0 mi South 9.2 mph - N/A   Scattered Clouds
10:53 AM 52.0 °F - 41.0 °F 66% 30.20 in 10.0 mi South 11.5 mph - N/A   Overcast
11:53 AM 53.1 °F - 37.9 °F 57% 30.19 in 10.0 mi SSW 13.8 mph 20.7 mph N/A   Overcast
12:53 PM 54.0 °F - 39.0 °F 57% 30.18 in 10.0 mi SSW 15.0 mph 21.9 mph N/A   Overcast
1:53 PM 52.0 °F - 39.0 °F 61% 30.19 in 10.0 mi SSW 10.4 mph 19.6 mph N/A   Overcast
2:53 PM 55.0 °F - 37.9 °F 53% 30.16 in 10.0 mi South 11.5 mph 19.6 mph N/A   Scattered Clouds
3:53 PM 53.1 °F - 37.9 °F 57% 30.14 in 10.0 mi SSW 8.1 mph 16.1 mph N/A   Clear
4:53 PM 52.0 °F - 39.0 °F 61% 30.12 in 10.0 mi Variable 5.8 mph - N/A   Overcast
5:53 PM 51.1 °F - 39.9 °F 66% 30.09 in 10.0 mi South 4.6 mph - N/A   Overcast
6:53 PM 51.1 °F - 39.0 °F 63% 30.05 in 10.0 mi South 9.2 mph - N/A   Overcast
7:53 PM 48.9 °F - 41.0 °F 74% 30.01 in 10.0 mi SW 6.9 mph - N/A   Overcast
8:53 PM 46.0 °F 41.9 °F 44.1 °F 93% 29.98 in 10.0 mi SW 8.1 mph - 0.00 in Rain Light Rain
9:53 PM 46.0 °F - 44.1 °F 93% 29.98 in 10.0 mi Calm Calm - 0.00 in Rain Light Rain
10:22 PM 46.4 °F - 44.6 °F 93% 29.97 in 10.0 mi Calm Calm - 0.00 in Rain Light Rain
10:44 PM 44.6 °F 43.1 °F 42.8 °F 93% 29.94 in 10.0 mi SSE 3.5 mph - 0.00 in Rain Light Rain
10:53 PM 46.0 °F - 44.1 °F 93% 29.95 in 10.0 mi Calm Calm - 0.00 in Rain Light Rain
11:53 PM 45.0 °F 43.5 °F 43.0 °F 93% 29.93 in 10.0 mi SSW 3.5 mph - 0.00 in Rain Light Rain